User: anonymous   Login
Location: Unspecified
(0.0000°N, 0.0000°E)
Time: 13:45:45
(UTC+00:00)
Language:

GONETS M04 - Orbit

View from above orbital plane
View from above orbital plane
View from above satellite
View from above satellite

Ground track
Ground track

The orbit data is extracted from the following two-line orbital elements,

1 38736U 12041D   17324.15664503  .00000001  00000-0 -62264-4 0  9998
2 38736  82.4818 226.8470 0025709  50.5467 309.7877 12.43798445241127
Epoch (UTC): 20 November 2017 03:45:34
Eccentricity: 0.0025709
inclination: 82.4818°
perigee height: 1470 km
apogee height: 1511 km
right ascension of ascending node: 226.8470°
argument of perigee: 50.5467°
revolutions per day: 12.43798445
mean anomaly at epoch: 309.7877°
orbit number at epoch: 24112

The dashed part of the orbit path shows where the satellite is in the earth's shadow,  

DLR